Weather History for KMOX - June, 2013

Change the Weather History Date:

Thursday, June 13, 2013

  Actual Average Record
Temperature  
Mean Temperature 65 °F -  
Max Temperature 80 °F 72 °F 82 °F (2006)
Min Temperature 50 °F 52 °F 33 °F (2002)
Growing Degree Days 15 (Base 50)    
Moisture  
Dew Point 51 °F    
Average Humidity 61    
Maximum Humidity 94    
Minimum Humidity 32    
Precipitation  
Precipitation 0.00 in - - ()
Sea Level Pressure  
Sea Level Pressure 30.08 in    
Wind  
Wind Speed 7 mph (ENE)    
Max Wind Speed 13 mph    
Max Gust Speed 9 mph    
Visibility 10 miles    
Events      
Averages and records for this station are not official NWS values.
T = Trace of Precipitation, MM = Missing Value Source: NWS Daily Summary

Daily Weather History Graph

Daily Weather History Graph

Search for Another Location

Airport or City:

Trip Planner

Search our weather history database for the weather conditions in past years. The results will help you decide how hot, cold, wet, or windy it might be!

Date:

Astronomy

Jun. 13, 2013 Rise Set
Actual Time 5:34 AM CDT 9:13 PM CDT
Civil Twilight 4:56 AM CDT 9:51 PM CDT
Nautical Twilight 4:05 AM CDT 10:42 PM CDT
Astronomical Twilight 2:57 AM CDT 11:51 PM CDT
Moon 10:23 AM CDT (6/13) No Moon Set
Length of Visible Light 16h 55m
Length of Day
15h 39m
Waxing Crescent, 22% of the Moon is Illuminated
Jun 13
Waxing Crescent
Jun 16
First Quarter
Jun 23
Full
Jun 29
Last Quarter
Jul 8
New

Hourly Weather History & Observations

Time (CDT) Temp. Dew Point Humidity Pressure Visibility Wind Dir Wind Speed Gust Speed Precip Events Conditions
12:11 AM 57.2 °F 51.8 °F 82% 30.04 in 10.0 mi NNW 6.9 mph - N/A   Clear
12:31 AM 57.2 °F 51.8 °F 82% 30.04 in 10.0 mi NNW 6.9 mph - N/A   Clear
12:51 AM 57.2 °F 51.8 °F 82% 30.04 in 10.0 mi NNW 8.1 mph - N/A   Clear
1:11 AM 55.4 °F 51.8 °F 88% 30.05 in 10.0 mi NNW 6.9 mph - N/A   Clear
1:31 AM 55.4 °F 50.0 °F 82% 30.06 in 10.0 mi NW 9.2 mph - N/A   Clear
1:51 AM 55.4 °F 50.0 °F 82% 30.06 in 10.0 mi NNW 8.1 mph - N/A   Clear
2:11 AM 55.4 °F 50.0 °F 82% 30.07 in 10.0 mi NNW 9.2 mph - N/A   Clear
2:31 AM 55.4 °F 50.0 °F 82% 30.07 in 10.0 mi NNW 8.1 mph - N/A   Clear
2:51 AM 53.6 °F 50.0 °F 88% 30.07 in 10.0 mi NNW 9.2 mph - N/A   Clear
3:11 AM 53.6 °F 50.0 °F 88% 30.07 in 10.0 mi NNW 8.1 mph - N/A   Clear
3:31 AM 53.6 °F 50.0 °F 88% 30.07 in 10.0 mi North 4.6 mph - N/A   Clear
3:51 AM 51.8 °F 50.0 °F 94% 30.07 in 10.0 mi NNW 4.6 mph - N/A   Clear
4:11 AM 51.8 °F 48.2 °F 88% 30.07 in 10.0 mi NNW 3.5 mph - N/A   Clear
4:31 AM 50.0 °F 48.2 °F 94% 30.08 in 10.0 mi WNW 4.6 mph - N/A   Clear
4:51 AM 50.0 °F 48.2 °F 94% 30.09 in 10.0 mi WNW 6.9 mph - N/A   Clear
5:11 AM 50.0 °F 48.2 °F 94% 30.11 in 10.0 mi NW 8.1 mph - N/A   Clear
5:31 AM 50.0 °F 48.2 °F 94% 30.11 in 10.0 mi NW 5.8 mph - N/A   Clear
5:51 AM 50.0 °F 48.2 °F 94% 30.11 in 10.0 mi NW 4.6 mph - N/A   Clear
6:11 AM 51.8 °F 48.2 °F 88% 30.12 in 10.0 mi West 6.9 mph - N/A   Clear
6:31 AM 51.8 °F 50.0 °F 94% 30.11 in 10.0 mi NNW 3.5 mph - N/A   Clear
6:51 AM 53.6 °F 51.8 °F 94% 30.10 in 10.0 mi North 3.5 mph - N/A   Clear
7:11 AM 55.4 °F 51.8 °F 88% 30.10 in 10.0 mi North 4.6 mph - N/A   Clear
7:31 AM 57.2 °F 53.6 °F 88% 30.10 in 10.0 mi Calm Calm - N/A   Clear
7:51 AM 60.8 °F 53.6 °F 77% 30.10 in 10.0 mi NNE 5.8 mph - N/A   Clear
8:11 AM 64.4 °F 53.6 °F 68% 30.10 in 10.0 mi NE 8.1 mph - N/A   Clear
8:31 AM 66.2 °F 53.6 °F 64% 30.11 in 10.0 mi NE 5.8 mph - N/A   Clear
8:51 AM 66.2 °F 53.6 °F 64% 30.11 in 10.0 mi ENE 5.8 mph - N/A   Clear
9:11 AM 66.2 °F 53.6 °F 64% 30.12 in 10.0 mi NE 4.6 mph - N/A   Clear
9:31 AM 68.0 °F 53.6 °F 60% 30.11 in 10.0 mi ENE 5.8 mph - N/A   Clear
9:51 AM 68.0 °F 53.6 °F 60% 30.13 in 10.0 mi Calm Calm - N/A   Clear
10:11 AM 69.8 °F 53.6 °F 56% 30.13 in 10.0 mi Calm Calm - N/A   Clear
10:31 AM 71.6 °F 51.8 °F 50% 30.13 in 10.0 mi Calm Calm - N/A   Clear
10:51 AM 71.6 °F 50.0 °F 46% 30.12 in 10.0 mi ENE 5.8 mph - N/A   Clear
11:11 AM 71.6 °F 48.2 °F 43% 30.13 in 10.0 mi Calm Calm - N/A   Clear
11:31 AM 73.4 °F 51.8 °F 47% 30.12 in 10.0 mi East 4.6 mph - N/A   Clear
11:51 AM 73.4 °F 51.8 °F 47% 30.12 in 10.0 mi ENE 6.9 mph - N/A   Clear
12:11 PM 73.4 °F 51.8 °F 47% 30.12 in 10.0 mi Calm Calm - N/A   Clear
12:31 PM 75.2 °F 51.8 °F 44% 30.11 in 10.0 mi NNE 6.9 mph - N/A   Clear
12:51 PM 75.2 °F 51.8 °F 44% 30.11 in 10.0 mi East 9.2 mph - N/A   Clear
1:11 PM 75.2 °F 50.0 °F 41% 30.11 in 10.0 mi East 6.9 mph - N/A   Clear
1:31 PM 75.2 °F 50.0 °F 41% 30.11 in 10.0 mi East 4.6 mph - N/A   Clear
1:51 PM 77.0 °F 50.0 °F 39% 30.11 in 10.0 mi East 5.8 mph - N/A   Clear
2:11 PM 78.8 °F 50.0 °F 36% 30.10 in 10.0 mi East 10.4 mph - N/A   Clear
2:31 PM 78.8 °F 50.0 °F 36% 30.09 in 10.0 mi ENE 5.8 mph 9.2 mph N/A   Clear
2:51 PM 78.8 °F 48.2 °F 34% 30.08 in 10.0 mi East 4.6 mph - N/A   Clear
3:11 PM 78.8 °F 48.2 °F 34% 30.08 in 10.0 mi East 4.6 mph - N/A   Clear
3:31 PM 78.8 °F 48.2 °F 34% 30.07 in 10.0 mi ENE 11.5 mph - N/A   Clear
3:51 PM 78.8 °F 48.2 °F 34% 30.07 in 10.0 mi NE 4.6 mph - N/A   Clear
4:11 PM 78.8 °F 48.2 °F 34% 30.07 in 10.0 mi East 6.9 mph - N/A   Clear
4:31 PM 78.8 °F 48.2 °F 34% 30.07 in 10.0 mi East 8.1 mph - N/A   Clear
4:50 PM 80.6 °F 48.2 °F 32% 30.06 in 10.0 mi SE 5.8 mph - N/A   Clear
5:11 PM 78.8 °F 48.2 °F 34% 30.05 in 10.0 mi SE 9.2 mph - N/A   Clear
5:31 PM 78.8 °F 48.2 °F 34% 30.05 in 10.0 mi East 8.1 mph - N/A   Clear
5:51 PM 78.8 °F 48.2 °F 34% 30.05 in 10.0 mi SE 9.2 mph - N/A   Clear
6:11 PM 78.8 °F 48.2 °F 34% 30.04 in 10.0 mi ESE 3.5 mph - N/A   Clear
6:31 PM 78.8 °F 50.0 °F 36% 30.04 in 10.0 mi ESE 9.2 mph - N/A   Clear
6:51 PM 78.8 °F 48.2 °F 34% 30.04 in 10.0 mi SE 9.2 mph - N/A   Clear
7:11 PM 78.8 °F 48.2 °F 34% 30.04 in 10.0 mi ESE 4.6 mph - N/A   Clear
7:31 PM 78.8 °F 51.8 °F 39% 30.03 in 10.0 mi ESE 9.2 mph - N/A   Clear
7:51 PM 77.0 °F 51.8 °F 41% 30.03 in 10.0 mi ESE 12.7 mph - N/A   Clear
8:09 PM 75.2 °F 51.8 °F 44% 30.03 in 10.0 mi ESE 10.4 mph - N/A   Clear
8:31 PM 75.2 °F 51.8 °F 44% 30.03 in 10.0 mi ESE 9.2 mph - N/A   Clear
8:51 PM 73.4 °F 51.8 °F 47% 30.03 in 10.0 mi ESE 10.4 mph - N/A   Clear
9:11 PM 71.6 °F 53.6 °F 53% 30.03 in 10.0 mi ESE 10.4 mph - N/A   Clear
9:31 PM 71.6 °F 53.6 °F 53% 30.03 in 10.0 mi ESE 8.1 mph - N/A   Clear
9:51 PM 69.8 °F 53.6 °F 56% 30.03 in 10.0 mi ESE 8.1 mph - N/A   Clear
10:11 PM 68.0 °F 53.6 °F 60% 30.04 in 10.0 mi ESE 9.2 mph - N/A   Clear
10:31 PM 66.2 °F 55.4 °F 68% 30.04 in 10.0 mi East 6.9 mph - N/A   Clear
10:51 PM 66.2 °F 55.4 °F 68% 30.04 in 10.0 mi East 8.1 mph - N/A   Clear
11:11 PM 66.2 °F 55.4 °F 68% 30.03 in 10.0 mi ESE 8.1 mph - N/A   Clear
11:31 PM 66.2 °F 55.4 °F 68% 30.03 in 10.0 mi East 8.1 mph - N/A   Clear
11:51 PM 66.2 °F 55.4 °F 68% 30.04 in 10.0 mi ESE 6.9 mph - N/A   Clear